Back to catalog

STARLINK-38152

AliveCommunicationsSSO
NORAD 100157·PAYLOAD·🇺🇸 United States

Launched Jul 25, 2026 from Vandenberg Space Force Base

Loading…

Next Passes (next 24 hours)

TLE

FreshSource: Space-Track

Epoch: Sep 14, 2026, 08:19 UTC

1 A0157U 26171K   26257.34666956  .00012335  00000-0  34288-3 0  9999
2 A0157  97.2830 289.8861 0001392 102.7631 257.3769 15.36997750  7953

Track STARLINK-38152 in real time with AllMySat

Download on the App Store